Theta_e
321 322 321 318 320 318 316 318 317 320 319 320 320 319 318 318 318 318 318 318 318 317 317 316 315 313 312 314 314 315 317 321 323 322 326 328 329 331 332 332 332 332 331 331
321 321 318 317 317 318 319 319 319 320 320 319 319 318 317 317 317 317 317 317 318 317 317 315 312 311 311 311 310 311 312 315 318 324 328 329 330 331 330 330 330 329 329 329
319 319 318 318 319 321 321 320 319 319 320 319 317 316 316 316 316 316 316 317 317 316 314 313 310 309 308 307 306 307 308 310 313 316 326 327 328 330 327 324 324 324 325 326
317 317 318 319 319 318 319 318 320 321 320 318 318 320 317 317 316 316 316 316 315 314 312 310 309 307 305 304 304 304 304 306 308 311 316 318 318 317 314 314 314 315 315 316
319 318 319 320 318 318 319 319 319 319 320 320 319 321 317 316 317 316 316 315 314 312 310 308 305 303 302 301 301 301 301 302 303 305 308 311 311 311 309 308 309 308 309 308
317 316 318 317 318 318 319 319 318 319 319 321 316 318 315 317 315 315 315 314 312 310 308 305 302 301 300 299 299 298 299 299 299 299 301 302 302 301 301 300 301 301 301 300
318 317 317 317 319 318 319 319 323 321 323 319 315 316 316 315 314 315 315 315 311 308 306 304 302 300 298 297 296 295 295 295 296 296 295 296 298 298 296 296 296 296 297 296
321 321 317 316 317 320 320 319 320 319 318 316 316 318 315 315 315 315 313 313 310 307 304 303 300 298 296 294 293 293 293 293 293 294 293 292 292 294 294 293 293 293 293 292
317 316 314 315 314 315 319 322 317 318 319 318 314 314 314 315 314 315 314 311 309 306 303 301 298 296 295 292 291 291 291 291 291 291 291 290 289 290 290 290 290 290 290 289
312 316 314 315 315 315 315 315 319 319 318 317 314 313 314 314 315 314 314 311 309 305 302 299 297 295 293 291 290 289 289 289 288 289 289 288 287 287 287 287 287 287 287 287
311 312 315 316 317 316 316 317 317 317 318 316 315 312 312 313 313 313 312 311 309 305 302 298 295 293 292 290 289 288 287 287 287 287 287 286 286 286 286 285 285 285 285 286
313 312 313 314 312 314 314 315 315 317 317 317 317 317 313 312 313 312 312 310 308 305 301 298 294 292 291 290 288 287 286 286 285 285 285 285 284 284 284 284 284 284 284 284
313 315 316 315 313 312 314 313 314 315 315 316 318 314 311 311 311 311 311 311 307 303 300 297 294 292 291 289 287 286 285 284 284 284 284 283 283 283 283 282 282 283 283 283
313 313 313 311 311 312 313 312 312 314 318 316 316 314 312 312 311 311 310 309 307 303 300 297 295 293 290 288 286 285 284 283 283 283 283 282 281 281 281 281 281 282 282 282
311 313 310 310 309 309 310 311 311 314 315 315 313 312 311 311 311 311 310 309 307 303 300 297 295 292 289 286 284 283 282 282 281 282 281 280 280 280 280 280 280 281 281 281
310 312 308 311 309 309 310 309 309 310 311 311 312 313 312 311 311 311 311 311 308 304 301 298 295 292 288 286 284 282 281 280 280 280 279 279 279 279 279 279 279 280 280 281
309 311 311 308 306 307 308 308 308 308 309 309 311 310 310 310 309 310 310 310 309 305 302 298 295 291 287 284 281 281 280 279 279 279 278 277 278 278 278 278 279 279 279 280
305 308 311 308 307 307 305 304 305 306 306 308 309 309 309 309 309 309 309 308 309 305 301 297 293 289 284 280 279 279 278 278 278 277 277 276 276 277 277 277 278 278 279 280
305 305 308 307 307 304 303 302 303 304 304 305 307 308 308 307 308 308 309 303 307 306 301 295 289 284 280 279 278 277 277 276 276 276 275 275 275 276 276 276 276 277 278 278
304 305 307 307 306 305 302 303 303 303 304 303 303 303 304 305 308 309 300 299 300 295 290 286 281 278 277 277 277 276 276 275 274 273 273 273 274 275 275 275 275 276 276 277
304 306 307 306 306 305 303 302 305 306 303 304 305 305 305 306 305 296 292 290 287 284 281 279 278 277 275 275 275 274 274 273 272 272 272 273 273 274 273 274 274 275 276 276
304 305 305 305 305 304 302 301 304 303 303 302 300 300 298 298 291 289 288 285 282 280 278 277 275 274 273 274 274 274 272 271 271 272 272 272 272 272 273 273 274 274 275 276
304 303 303 303 304 302 302 303 302 299 301 301 295 295 292 291 289 288 285 282 280 278 276 274 273 272 271 272 273 272 270 271 271 272 272 272 272 272 272 272 273 274 274 275
303 303 303 303 302 302 302 301 294 292 293 291 288 289 290 290 287 285 282 280 278 275 274 272 271 271 270 269 270 270 270 271 271 271 271 271 271 271 271 271 272 273 272 273
304 303 304 303 302 302 302 299 297 291 287 286 285 287 288 287 285 283 280 277 275 273 272 272 271 270 269 268 268 269 270 270 270 271 270 270 270 270 270 270 269 270 269 270
302 302 303 304 302 303 302 288 287 287 285 284 283 282 283 284 282 279 276 274 273 272 271 271 270 269 267 267 268 269 270 270 270 270 270 269 269 269 268 268 268 267 267 268
Wind_Speed
9 8 10 13 13 7 6 7 6 4 1 3 12 15 16 14 16 18 19 18 17 15 15 5 2 6 7 6 9 10 11 10 9 9 9 10 10 10 10 11 11 11 11 11
7 12 11 6 8 11 7 6 7 4 3 5 14 20 19 19 22 21 20 17 15 10 6 4 4 5 7 8 10 10 11 11 9 5 6 6 4 3 1 1 1 3 6 7
14 3 3 8 7 9 11 11 9 9 8 13 14 21 11 6 8 6 6 8 6 5 4 4 3 6 8 10 12 12 12 12 11 7 2 2 2 3 5 6 4 5 5 6
12 9 6 10 12 7 7 7 9 7 6 5 4 7 12 7 9 9 2 3 3 4 5 5 4 6 9 10 11 12 13 14 13 12 11 8 8 7 6 5 6 7 9 9
5 8 11 11 10 10 3 3 4 6 9 11 12 6 4 3 12 13 8 5 5 4 4 5 6 7 8 10 10 11 12 14 15 15 13 10 9 7 7 8 8 9 9 11
4 2 5 12 2 9 7 4 2 1 4 7 14 11 7 8 7 7 9 7 5 4 5 6 5 6 8 9 10 10 12 14 15 15 15 14 13 12 10 11 10 10 10 11
7 6 3 2 6 2 8 8 2 2 4 6 2 10 14 2 5 9 5 7 6 5 5 4 4 5 7 9 10 10 11 13 14 15 15 14 12 12 12 12 12 12 11 13
8 6 13 11 9 5 13 12 4 5 7 7 4 8 4 5 11 11 3 5 7 6 5 4 4 4 6 7 9 10 11 12 12 12 13 13 13 11 11 12 11 11 11 13
6 5 3 5 5 9 10 11 12 8 4 6 11 15 15 10 8 8 8 6 6 6 6 6 5 4 5 7 8 9 9 10 11 11 10 11 12 12 11 11 10 11 11 13
4 4 2 6 4 9 11 4 3 4 5 10 10 13 10 3 11 10 11 9 7 7 8 7 6 5 4 5 6 7 8 9 9 9 10 10 11 11 10 11 12 12 12 13
8 6 5 6 10 13 9 5 8 5 8 6 8 7 7 6 9 9 7 7 9 10 9 8 7 5 4 4 4 6 7 8 8 9 9 9 10 10 10 11 11 12 12 13
17 7 9 10 5 10 15 15 17 9 8 10 10 18 6 4 6 3 3 8 9 10 10 9 9 8 7 4 4 4 5 6 7 8 8 8 9 10 11 11 12 12 12 13
13 6 4 4 2 8 10 14 19 18 14 19 11 10 5 11 4 2 6 7 8 10 11 10 11 11 9 6 4 3 3 4 6 6 6 7 9 10 11 11 12 13 13 13
12 6 8 9 4 2 8 17 18 19 15 15 23 27 22 17 13 9 7 7 12 13 14 13 12 13 11 8 6 4 3 3 4 5 6 8 9 10 11 11 12 11 11 12
9 5 10 11 12 10 12 13 14 20 23 21 24 27 18 17 15 13 14 11 13 15 17 16 14 14 14 11 8 5 3 3 3 4 5 7 7 9 10 11 11 11 12 13
6 4 7 3 8 11 18 21 21 23 24 24 24 33 16 18 16 18 19 17 15 16 17 15 14 18 16 13 9 6 3 2 3 5 4 4 5 11 11 11 11 12 13 13
7 3 2 10 8 5 14 13 24 26 25 23 27 35 17 19 18 20 25 18 14 19 18 18 17 19 17 13 10 8 6 5 4 5 4 6 8 10 9 10 11 12 13 13
8 7 3 5 2 13 11 11 12 12 16 19 26 29 24 23 20 23 20 12 15 17 15 17 19 19 16 13 11 9 8 6 6 6 5 6 9 10 9 10 11 12 11 13
8 9 5 6 11 18 29 16 11 12 21 19 20 21 19 18 17 28 18 14 15 14 13 19 21 19 16 14 12 11 9 9 6 6 4 5 9 9 9 11 11 11 11 12
14 13 10 9 12 20 26 8 9 13 24 17 23 27 22 19 14 19 7 1 3 17 20 21 20 19 16 14 14 13 11 8 6 5 3 6 9 9 10 10 10 9 10 12
6 9 16 16 14 16 20 13 7 12 22 3 12 16 16 15 9 5 10 12 16 18 22 20 19 18 15 15 15 15 12 8 4 3 4 6 8 9 9 8 9 10 9 10
12 8 9 8 11 25 5 2 22 19 23 14 8 6 7 7 3 6 8 11 13 17 19 18 19 16 14 15 15 12 10 7 6 5 6 8 8 8 8 10 9 9 10 9
7 11 12 11 9 16 10 12 10 6 15 13 6 5 4 6 6 9 10 11 12 15 17 16 18 18 15 16 14 13 7 8 7 7 7 7 9 10 9 7 8 6 8 10
7 5 9 15 20 26 25 17 8 9 9 6 7 7 8 8 9 11 12 11 14 16 15 17 17 14 13 13 13 12 10 9 9 8 7 8 9 7 8 5 5 6 8 10
9 6 9 12 21 10 21 12 9 9 8 7 7 8 10 10 13 14 12 11 15 16 15 16 17 16 13 12 13 11 10 9 8 8 7 6 5 6 5 5 5 5 6 8
8 12 7 13 9 7 15 5 5 5 8 9 8 6 3 8 11 12 11 16 16 13 15 14 15 16 13 13 12 11 10 9 9 6 5 5 5 4 4 3 3 3 4 5
Wind_Direction
196 206 208 210 215 274 275 229 223 168 133 290 256 264 266 271 268 265 265 271 271 272 285 331 343 322 326 337 343 340 335 330 304 269 249 247 247 247 248 249 256 257 264 261
180 225 223 239 219 231 237 233 231 252 246 271 283 278 273 267 264 263 263 262 269 274 267 36 18 5 14 15 13 8 4 359 349 319 276 256 256 245 282 152 289 269 279 283
218 104 227 186 200 217 230 245 252 264 302 278 291 282 251 246 266 257 237 248 255 283 307 98 54 37 31 29 24 24 20 17 14 3 282 236 213 156 83 44 28 21 13 8
226 177 154 206 225 212 245 225 253 278 295 286 39 294 294 265 247 228 217 222 134 121 101 87 67 45 39 31 31 33 32 32 28 37 43 67 59 60 39 30 34 40 40 39
180 207 187 200 210 194 216 128 208 248 268 292 269 261 261 224 242 246 203 164 133 87 73 78 69 61 49 39 35 36 41 42 42 46 53 62 65 61 49 40 42 39 36 32
170 55 215 217 156 196 133 143 144 246 277 260 234 221 258 184 246 208 149 178 153 127 98 90 84 75 55 43 42 40 44 44 44 48 51 56 58 54 48 39 36 29 24 20
164 186 154 192 158 139 197 170 168 221 214 248 101 220 248 280 251 275 192 181 150 146 140 123 103 77 57 45 41 41 43 43 42 45 48 47 50 50 45 36 26 22 15 10
181 181 188 182 204 174 195 193 197 244 249 277 137 241 251 260 263 229 121 139 141 159 140 146 120 88 67 53 44 43 42 41 40 42 42 42 44 46 41 33 28 23 13 4
180 202 197 201 194 174 190 223 243 296 259 271 252 250 261 207 228 244 198 191 191 168 159 160 140 113 85 62 49 44 40 39 38 39 38 37 38 40 37 32 28 23 15 5
174 154 153 166 191 243 239 204 178 213 242 253 248 256 260 211 213 217 217 218 200 170 174 168 161 138 100 72 56 49 43 38 33 34 35 33 35 35 31 32 28 22 16 10
166 220 134 161 200 192 193 209 224 234 236 262 279 263 24 46 198 230 216 218 195 191 189 179 167 158 135 94 66 50 39 33 29 27 27 28 30 32 33 33 26 23 15 16
202 222 211 203 188 243 222 216 219 225 203 238 265 261 236 67 45 43 194 195 196 195 189 186 181 175 169 138 90 61 43 35 27 22 25 24 29 32 31 28 22 22 21 17
172 215 188 170 10 241 234 232 239 239 260 254 250 245 51 86 178 235 259 217 199 192 188 191 191 191 178 165 141 108 62 39 27 25 25 27 32 32 30 24 20 21 20 21
173 198 219 229 85 88 205 232 238 240 243 254 245 268 260 267 281 267 231 215 207 203 200 204 199 193 183 173 165 141 104 52 35 39 26 28 29 34 30 22 17 19 25 23
191 221 231 251 278 273 265 253 244 240 249 250 268 269 268 273 281 288 296 206 212 208 208 205 200 191 184 179 170 156 131 97 57 64 51 33 26 43 37 26 21 15 23 23
208 252 243 242 269 276 270 262 260 260 263 266 269 265 270 270 275 276 272 262 218 217 210 203 197 191 188 182 177 164 141 91 99 72 58 54 52 54 33 29 20 13 21 22
206 175 176 262 262 291 268 238 244 252 251 252 256 263 276 279 281 273 270 271 221 219 210 197 192 186 181 174 168 153 133 110 79 76 48 50 52 58 46 31 31 20 12 22
229 225 194 247 155 250 267 254 270 284 272 251 257 269 272 273 275 272 275 289 259 214 200 189 179 176 166 156 149 134 119 109 95 76 33 51 60 55 47 43 34 26 13 21
233 227 239 235 231 266 267 248 246 261 274 261 269 266 266 271 278 274 273 236 258 209 189 166 160 159 153 148 140 128 113 97 86 68 29 40 62 55 44 43 34 24 13 17
224 229 225 233 247 256 266 276 229 257 264 251 250 259 263 267 263 270 35 178 91 102 120 130 134 133 141 142 138 125 111 106 91 56 27 38 55 54 46 38 29 19 18 14
192 215 227 234 245 257 264 261 160 227 258 275 245 256 265 260 284 29 97 94 103 115 125 131 134 137 142 141 137 124 123 112 114 117 73 63 57 54 48 42 34 24 19 14
188 190 214 229 243 261 151 247 218 243 263 271 268 272 268 299 105 116 120 125 127 129 132 138 135 134 134 136 132 120 118 125 123 116 96 73 67 61 49 43 33 26 17 9
231 214 221 208 229 255 270 259 247 286 266 272 249 250 266 205 184 153 144 141 144 144 142 142 137 130 130 132 132 131 132 127 126 109 89 78 67 55 54 47 33 22 14 13
229 243 237 251 258 257 266 253 220 210 226 213 234 241 225 214 173 161 151 149 145 145 147 137 130 123 121 127 130 134 134 135 121 109 95 75 63 61 50 48 32 26 17 8
237 151 228 250 256 282 270 257 269 223 222 229 233 232 218 190 178 164 156 153 152 148 144 143 136 136 132 131 134 132 127 131 120 106 93 91 70 56 41 30 25 28 25 20
202 223 213 245 260 239 278 358 5 236 232 228 202 189 172 185 163 148 143 145 139 144 142 141 136 134 136 136 129 131 129 125 124 118 99 81 70 54 37 23 18 13 27 28